TimeEST,TemperatureF,Dew PointF,Humidity,Sea Level PressureIn,VisibilityMPH,Wind Direction,Wind SpeedMPH,Gust SpeedMPH,PrecipitationIn,Events,Conditions,WindDirDegrees,DateUTC
12:25 AM,53.6,50.0,88,30.37,9.0,Variable,3.5,-,0.00,,Overcast,0,2013-01-11 05:25:00
12:53 AM,54.0,50.0,86,30.38,10.0,Variable,4.6,-,0.00,,Overcast,0,2013-01-11 05:53:00
1:32 AM,53.6,50.0,88,30.35,7.0,Variable,3.5,-,N/A,,Overcast,0,2013-01-11 06:32:00
1:53 AM,53.1,51.1,93,30.37,5.0,Variable,4.6,-,0.00,Rain,Light Rain,0,2013-01-11 06:53:00
2:08 AM,53.6,51.8,94,30.35,4.0,East,4.6,-,0.00,Rain,Light Rain,90,2013-01-11 07:08:00
2:53 AM,52.0,51.1,97,30.36,6.0,East,4.6,-,0.00,,Overcast,90,2013-01-11 07:53:00
3:22 AM,51.8,51.8,100,30.32,6.0,Variable,4.6,-,N/A,,Overcast,0,2013-01-11 08:22:00
3:53 AM,52.0,50.0,93,30.33,8.0,East,5.8,-,N/A,,Overcast,100,2013-01-11 08:53:00
4:53 AM,51.1,50.0,96,30.32,8.0,Calm,Calm,-,N/A,,Overcast,0,2013-01-11 09:53:00
5:29 AM,50.0,48.2,94,30.29,4.0,Variable,4.6,-,N/A,,Overcast,0,2013-01-11 10:29:00
5:53 AM,50.0,48.9,96,30.32,2.5,East,4.6,-,N/A,,Overcast,90,2013-01-11 10:53:00
6:31 AM,48.2,48.2,100,30.31,1.5,NE,4.6,-,N/A,,Overcast,40,2013-01-11 11:31:00
6:53 AM,48.9,48.0,97,30.33,1.2,Variable,3.5,-,N/A,,Overcast,0,2013-01-11 11:53:00
7:53 AM,48.0,46.9,96,30.33,0.8,East,6.9,-,N/A,,Overcast,80,2013-01-11 12:53:00
8:15 AM,48.2,46.4,93,30.29,0.5,East,6.9,-,N/A,Fog,Fog,80,2013-01-11 13:15:00
8:24 AM,46.4,46.4,100,30.30,0.8,Variable,6.9,-,N/A,,Overcast,0,2013-01-11 13:24:00
8:46 AM,46.4,46.4,100,30.31,0.5,Calm,Calm,-,N/A,Fog,Fog,0,2013-01-11 13:46:00
8:53 AM,48.0,46.9,96,30.35,0.5,Variable,5.8,-,N/A,Fog,Fog,0,2013-01-11 13:53:00
9:53 AM,48.0,46.9,96,30.34,0.5,Variable,5.8,-,N/A,Fog,Fog,0,2013-01-11 14:53:00
10:53 AM,48.9,48.0,97,30.33,0.2,ESE,3.5,-,N/A,Fog,Fog,110,2013-01-11 15:53:00
11:53 AM,48.9,48.9,100,30.30,0.2,ENE,4.6,-,0.00,Fog,Fog,70,2013-01-11 16:53:00
12:53 PM,50.0,50.0,100,30.26,0.2,Calm,Calm,-,N/A,Fog,Fog,0,2013-01-11 17:53:00
1:53 PM,51.1,51.1,100,30.23,0.5,Variable,4.6,-,N/A,Fog,Fog,0,2013-01-11 18:53:00
3:02 PM,53.6,51.8,94,30.19,2.0,Calm,Calm,-,N/A,,Overcast,0,2013-01-11 20:02:00
3:15 PM,53.6,53.6,100,30.18,1.8,Calm,Calm,-,N/A,,Overcast,0,2013-01-11 20:15:00
3:41 PM,53.6,51.8,94,30.19,1.8,North,3.5,-,N/A,,Overcast,350,2013-01-11 20:41:00
3:53 PM,53.1,52.0,96,30.23,2.0,Calm,Calm,-,N/A,,Overcast,0,2013-01-11 20:53:00
4:04 PM,53.6,51.8,94,30.19,1.5,Calm,Calm,-,N/A,,Overcast,0,2013-01-11 21:04:00
4:25 PM,53.6,51.8,94,30.18,0.8,Calm,Calm,-,N/A,,Overcast,0,2013-01-11 21:25:00
4:36 PM,53.6,51.8,94,30.18,1.0,Calm,Calm,-,N/A,,Overcast,0,2013-01-11 21:36:00
4:44 PM,53.6,51.8,94,30.18,0.8,Calm,Calm,-,N/A,,Overcast,0,2013-01-11 21:44:00
4:53 PM,53.1,52.0,96,30.22,0.5,NE,3.5,-,N/A,Fog,Fog,40,2013-01-11 21:53:00
5:53 PM,52.0,52.0,100,30.22,0.5,ENE,5.8,-,N/A,Fog,Fog,60,2013-01-11 22:53:00
6:53 PM,52.0,52.0,100,30.20,0.2,Calm,Calm,-,N/A,Fog,Fog,0,2013-01-11 23:53:00
7:53 PM,52.0,52.0,100,30.22,0.2,NNE,3.5,-,N/A,Fog,Fog,20,2013-01-12 00:53:00
8:47 PM,51.8,51.8,100,30.18,1.0,NNW,3.5,-,N/A,,Mist,340,2013-01-12 01:47:00
8:53 PM,52.0,51.1,97,30.22,0.8,North,4.6,-,N/A,,Mist,360,2013-01-12 01:53:00
9:05 PM,51.8,51.8,100,30.18,1.5,North,3.5,-,N/A,,Overcast,350,2013-01-12 02:05:00
9:26 PM,51.8,51.8,100,30.18,2.5,Calm,Calm,-,N/A,,Overcast,0,2013-01-12 02:26:00
9:38 PM,51.8,51.8,100,30.18,3.0,Calm,Calm,-,N/A,,Overcast,0,2013-01-12 02:38:00
9:53 PM,52.0,51.1,97,30.22,3.0,NNE,3.5,-,N/A,,Overcast,20,2013-01-12 02:53:00
10:25 PM,51.8,51.8,100,30.17,3.0,Calm,Calm,-,N/A,,Overcast,0,2013-01-12 03:25:00
10:53 PM,52.0,51.1,97,30.21,3.0,SW,3.5,-,N/A,,Overcast,220,2013-01-12 03:53:00
11:20 PM,51.8,51.8,100,30.16,2.5,Calm,Calm,-,N/A,,Mostly Cloudy,0,2013-01-12 04:20:00
11:49 PM,51.8,51.8,100,30.16,3.0,SW,3.5,-,N/A,,Mostly Cloudy,220,2013-01-12 04:49:00
11:53 PM,52.0,51.1,97,30.20,3.0,Calm,Calm,-,N/A,,Mostly Cloudy,0,2013-01-12 04:53:00